Total_Precipitation_Accumulation
2.43 2.65 3.22 2.89 2.70 2.78 3.00 3.01 3.22 3.47 3.22 3.02 2.93 2.86 2.93 3.26 3.37 3.29 3.26 3.42 3.86 4.37 4.82 5.02 5.07 4.92 4.83 4.65 3.94 3.37 2.99 2.91 2.90 2.86 2.74 2.70 2.82 3.04 3.13 3.26 3.22 2.41 2.31
2.08 2.45 2.93 2.77 2.59 2.71 2.87 2.94 3.13 3.32 3.20 2.99 2.90 2.92 3.07 3.37 3.35 3.29 3.25 3.36 3.68 4.18 4.53 4.49 4.42 4.19 4.01 3.80 3.38 3.12 3.06 3.13 3.26 3.29 3.35 3.12 3.26 3.36 3.22 3.27 3.39 2.55 2.48
1.96 2.12 2.31 2.41 2.25 2.36 2.50 2.52 2.69 3.16 3.38 3.22 2.93 2.83 3.05 3.31 3.54 3.65 3.55 3.56 3.85 4.27 4.48 4.36 4.09 3.88 3.68 3.52 3.18 3.05 3.04 3.30 3.62 3.92 4.24 3.22 2.72 3.30 3.26 3.22 2.96 2.47 2.37
1.50 1.61 1.75 2.05 2.04 2.04 2.24 2.40 2.53 2.88 3.21 3.01 2.82 2.68 2.95 3.31 3.61 3.77 3.77 3.68 3.93 4.31 4.66 4.56 4.24 3.95 3.62 3.35 3.12 3.05 3.13 3.45 3.72 4.22 4.05 2.87 2.17 2.63 2.99 2.92 2.60 2.29 2.14
1.38 1.48 1.83 1.96 1.89 1.96 2.15 2.33 2.42 2.61 2.77 2.68 2.72 2.81 3.09 3.49 3.79 3.85 3.78 3.70 3.81 4.11 4.52 4.63 4.17 3.64 3.31 3.15 3.20 3.28 3.39 3.67 3.95 3.84 3.03 2.99 2.87 2.82 2.76 2.72 2.55 2.25 2.06
1.51 1.60 1.81 1.96 1.89 2.04 2.12 2.11 2.27 2.44 2.53 2.65 2.78 2.89 3.22 3.52 3.72 3.72 3.58 3.55 3.71 3.94 4.19 4.24 3.84 3.36 3.17 3.21 3.36 3.46 3.63 3.87 3.77 2.90 2.63 2.69 2.53 2.67 2.74 2.74 2.58 2.31 2.14
1.47 1.68 1.84 1.91 1.79 1.82 1.81 1.91 2.18 2.29 2.40 2.63 2.70 2.86 3.17 3.49 3.66 3.69 3.59 3.69 3.74 3.94 4.11 3.89 3.54 3.31 3.37 3.29 3.34 3.44 3.70 3.86 3.12 2.56 2.69 2.85 2.53 2.51 2.84 2.94 2.68 2.36 2.06
1.44 1.56 1.82 1.86 1.69 1.62 1.69 1.84 2.01 2.15 2.32 2.53 2.61 2.78 3.08 3.41 3.46 3.31 3.37 3.58 3.44 3.70 3.85 3.58 3.36 3.23 3.31 3.34 3.29 3.44 3.61 3.40 2.52 2.21 2.35 2.51 2.22 2.45 2.98 3.02 2.79 2.57 2.24
1.43 1.47 1.65 1.79 1.71 1.65 1.71 1.92 2.07 2.17 2.37 2.56 2.62 2.82 3.20 3.43 3.43 3.26 3.25 3.38 3.42 3.74 3.66 3.34 3.30 3.21 3.17 3.30 3.34 3.53 3.59 3.38 2.57 2.32 2.05 2.20 2.08 2.46 3.03 3.01 2.80 2.70 2.40
1.56 1.59 1.61 1.72 1.64 1.62 1.75 2.11 2.35 2.44 2.70 2.95 2.97 3.17 3.64 3.69 3.59 3.44 3.21 3.35 3.50 3.70 3.62 3.41 3.36 3.32 3.33 3.46 3.61 3.74 3.72 3.22 2.50 2.23 2.15 2.00 2.15 2.66 3.12 3.07 2.95 2.84 2.62
1.71 1.88 1.82 1.83 1.63 1.68 1.74 2.03 2.47 2.64 2.99 3.43 3.61 3.93 4.32 4.31 3.94 3.87 3.44 3.79 3.95 4.04 4.06 3.91 3.84 3.77 3.66 3.67 3.91 3.91 3.58 2.97 2.81 2.42 2.20 2.11 2.47 2.98 3.31 3.41 3.30 3.17 2.97
2.02 1.85 1.89 1.95 1.78 1.85 1.79 2.16 2.87 2.95 3.32 3.79 4.12 4.16 4.45 4.51 4.42 3.82 4.12 4.71 4.99 5.10 5.10 5.01 4.96 4.57 3.94 3.60 4.03 4.31 3.47 3.09 2.95 2.50 2.20 2.33 2.74 3.23 3.50 3.61 3.31 3.21 3.12
1.98 1.78 1.87 1.96 2.09 2.21 2.53 2.37 2.63 3.16 3.77 3.96 4.17 4.48 4.60 4.36 4.16 3.98 4.43 5.17 5.47 5.53 5.42 5.36 5.37 4.74 4.33 4.31 4.46 4.23 3.68 3.47 3.14 2.71 2.79 2.94 3.20 3.71 3.94 3.72 3.44 3.25 3.05
2.34 2.29 2.24 2.43 2.67 2.74 2.60 2.64 2.60 2.84 3.45 3.93 4.19 4.05 4.20 4.64 4.59 4.23 4.34 4.68 4.99 5.17 5.44 5.10 5.02 4.91 4.67 4.32 4.06 4.02 3.76 3.67 3.47 3.40 3.59 3.62 3.58 4.00 4.33 4.04 3.71 3.52 3.35
3.07 3.26 3.18 3.15 3.11 3.19 3.26 3.20 2.86 3.26 3.35 3.38 3.80 3.91 3.93 4.44 4.72 4.65 4.57 4.80 4.47 4.54 4.88 4.94 4.65 4.72 4.74 4.46 3.99 3.78 3.75 3.66 3.71 3.59 3.68 3.90 3.67 3.78 4.27 4.34 4.22 4.01 3.84
3.78 4.31 4.10 3.92 3.68 3.62 3.73 3.80 3.82 3.61 3.57 3.28 3.50 3.74 3.88 4.31 4.65 4.78 4.75 4.85 4.41 4.28 4.44 4.49 4.37 4.63 4.57 4.40 3.94 3.67 3.59 3.77 3.80 3.62 3.69 3.99 3.87 3.56 3.80 4.15 4.46 4.52 4.37
4.44 5.05 4.84 4.69 4.68 4.51 4.45 4.19 3.86 3.67 3.57 3.65 3.80 3.97 4.10 4.24 4.65 4.88 4.83 4.69 4.57 4.55 4.58 4.48 4.42 4.74 4.43 4.18 4.01 3.89 3.78 3.77 3.60 3.55 3.61 3.86 3.51 3.33 3.40 3.60 4.02 4.37 4.74
4.64 5.11 5.46 5.08 5.50 5.50 5.32 4.95 4.47 4.19 4.24 4.15 4.07 4.26 4.08 4.02 4.19 4.71 4.54 4.29 4.53 4.67 4.79 4.74 4.61 4.68 4.71 4.74 4.57 4.32 4.06 3.89 3.23 3.18 3.27 3.37 3.54 3.09 3.26 3.53 3.70 3.91 4.52
4.87 5.45 5.97 6.16 6.25 5.87 5.63 5.40 5.21 4.89 4.60 4.15 3.74 3.68 3.60 3.39 3.36 3.64 3.71 3.80 3.90 4.12 4.10 3.83 4.27 4.51 4.69 4.86 4.55 4.32 3.87 3.70 3.39 3.23 3.27 3.00 3.18 3.21 3.31 3.39 3.69 3.71 4.26
4.96 5.89 6.35 6.52 6.14 5.75 5.50 5.21 5.12 4.75 4.33 3.95 3.56 3.36 3.17 3.12 2.96 3.19 3.05 3.16 3.38 3.71 3.85 3.97 4.28 4.23 4.18 4.38 3.97 4.00 3.78 3.48 3.37 3.29 3.07 3.04 3.08 3.03 3.19 3.46 3.77 3.40 3.92
4.98 6.00 6.46 6.34 5.78 5.31 4.95 4.66 4.42 4.06 3.74 3.60 3.30 2.99 2.96 2.94 2.98 3.30 3.00 3.41 3.43 3.55 3.57 3.53 3.71 3.68 3.53 3.74 4.33 4.32 3.80 3.43 3.36 3.20 3.06 3.19 3.01 2.99 3.23 3.53 3.79 3.78 3.42
4.30 5.14 5.55 5.27 4.72 4.12 3.94 3.88 3.86 3.78 3.35 3.12 3.06 3.07 2.75 2.78 2.91 3.03 3.23 3.09 3.18 3.40 3.28 3.24 3.58 3.55 3.20 3.39 4.04 4.37 4.17 4.14 3.76 3.02 3.05 3.16 3.12 3.19 3.17 3.15 3.51 3.82 3.61
3.80 3.89 4.05 4.00 3.59 3.31 3.26 3.26 3.30 3.51 3.29 2.99 2.90 2.86 2.63 2.55 2.59 2.79 2.90 3.04 3.20 3.07 3.18 3.28 3.37 3.50 3.43 3.34 3.49 4.14 4.12 3.96 3.80 3.44 3.06 2.99 3.14 3.37 3.23 3.17 3.15 3.32 3.43
2.89 2.79 2.89 3.01 2.96 2.98 2.94 2.98 2.86 2.74 2.75 2.64 2.63 2.60 2.59 2.47 2.40 2.35 2.52 2.82 2.98 2.92 3.20 2.95 3.09 3.43 3.56 3.33 3.37 3.47 3.50 3.63 3.81 3.61 3.20 2.87 2.88 2.94 2.99 2.86 2.97 3.18 3.35
1.99 2.05 2.31 2.69 2.87 2.82 2.78 2.96 2.96 2.62 2.48 2.41 2.43 2.61 2.60 2.47 2.34 2.21 2.33 2.60 2.80 2.89 3.01 3.05 3.37 3.31 3.24 3.24 3.26 3.37 3.51 3.48 3.31 3.35 3.36 3.07 2.85 2.63 2.67 2.77 2.94 3.22 3.28
1.48 1.60 1.87 2.32 2.59 2.59 2.62 2.67 2.61 2.57 2.55 2.50 2.48 2.54 2.43 2.35 2.44 2.53 2.50 2.60 2.62 2.73 2.89 3.03 3.21 3.20 3.17 3.21 3.10 3.04 3.34 3.51 3.49 3.53 3.35 3.05 2.86 2.57 2.50 2.56 2.83 3.17 3.24